Torna al catalogo

MALLIGYONG-1

AttivoMilitareSSO
NORAD 58400·PAYLOAD·🇰🇵 North Korea

Lanciato Nov 21, 2023 da Sohae Satellite Launching Station

Loading…

Prossimi Passaggi (prossime 24 ore)

TLE

AggiornatoSource: Space-Track

Epoca: Sep 14, 2026, 22:13 UTC

1 58400U 23179A   26257.92602625  .00002657  00000-0  11552-3 0  9990
2 58400  97.2858 136.8952 0010089  75.5965 284.6391 15.23075490156413

Traccia MALLIGYONG-1 in tempo reale con AllMySat

Download on the App Store